[[{"header":{"parameterUnit":"m.s-1","parameterCategory":1,"la1":30.2991,"la2":30.254,"lo1":-89.0895,"lo2":-89.0444,"dy":0.0017,"dx":0.0017,"nx":28,"ny":28,"refTime":"2025-07-03T03:00:00:Z","depth":0,"parameterNumber":2,"parameterNumberName":"U-component_of_WINDS"},"data":[0,0,0,0,0,0,0,0,0,0,0,0,0,0,0,0,0,0,0,0,0,0,0,0,0,0,0,0,0,0,0,0,0,0,0,0,0,0,0,0,0,0,0,0,0,0,0,0,0,0,0,0,0,0,0,0,0,0,0.2633,0.2633,0,0.2657,0.2657,0.2657,0.2626,0.2625,0.2624,0.2623,0.2645,0.2647,0.2648,0,0,0,0,0,0,0,0,0,0,0,0,0,0.2561,0.2562,0.2633,0.2633,0.2634,0.2657,0.2657,0.2657,0.2626,0.2625,0.2624,0.2622,0.2645,0.2647,0.2649,0,0,0,0,0,0,0,0,0,0,0,0,0,0.2589,0.2563,0.2633,0.2621,0.262,0.2657,0.2657,0.2657,0.2627,0.2625,0.2623,0.2622,0.2644,0.2646,0.2649,0.2698,0,0,0.2656,0.2657,0,0,0,0,0,0,0,0,0.2587,0.2592,0.2622,0.2622,0.2621,0.2637,0.264,0.2671,0.2627,0.2624,0.2623,0.2621,0.2644,0.2646,0.2654,0.2699,0.27,0.2657,0.2658,0.2659,0.266,0,0,0,0,0,0,0,0.2585,0.259,0.2642,0.2623,0.2622,0.2614,0.2616,0.2645,0.2643,0.2624,0.2622,0.2625,0.2643,0.2652,0.2654,0.27,0.2657,0.2659,0.266,0.2661,0.2787,0.2789,0,0,0,0,0,0,0.2585,0.2589,0.2642,0.2643,0.26,0.2617,0.2619,0.2633,0.2643,0.2642,0.2627,0.2624,0.2648,0.2652,0.2655,0.2713,0.2659,0.2661,0.2663,0.2785,0.2787,0.2789,0,0,0,0,0,0,0.2584,0.259,0.2641,0.2615,0.2621,0.262,0.2636,0.2635,0.2643,0.2645,0.2644,0.2636,0.2647,0.2652,0.2688,0.2713,0.2663,0.2665,0.2783,0.2786,0.2788,0.2829,0,0,0,0,0,0,0.2582,0.259,0.2608,0.2616,0.2623,0.2673,0.2638,0.2636,0.2648,0.2644,0.2653,0.2653,0.2646,0.2684,0.269,0.2716,0.2667,0.278,0.2784,0.2787,0.2825,0.2833,0.2839,0,0,0,0,0,0.2579,0.2618,0.2609,0.2616,0.2646,0.2674,0.2678,0.267,0.265,0.2669,0.267,0.2653,0.271,0.2688,0.2695,0.2721,0.2779,0.2783,0.2787,0.2822,0.2831,0.2839,0,0,0,0,0,0,0.2612,0.2619,0.2609,0.2652,0.2663,0.2669,0.2692,0.268,0.2696,0.2692,0.2681,0.2683,0.2722,0.2725,0.2701,0.2769,0.2741,0.2747,0.2765,0.2774,0.2781,0.2778,0.2669,0,0,0,0,0,0.2624,0.2647,0.2652,0.2689,0.2695,0.2693,0.2705,0.2698,0.2709,0.2713,0.2717,0.2728,0.2748,0.2761,0.278,0.2826,0.2828,0.2848,0.2855,0.2861,0.2865,0.289,0.2899,0.2803,0.2803,0.2803,0,0,0.2649,0.2656,0.2671,0.2696,0.2704,0.2727,0.2697,0.2723,0.2741,0.2717,0.2751,0.2755,0.2766,0.2807,0.2826,0.2811,0.2893,0.2866,0.2871,0.2872,0.2895,0.2904,0.2913,0.2806,0.2805,0.2805,0,0,0.2707,0.2715,0.2747,0.2756,0.2769,0.2767,0.2775,0.2784,0.2786,0.282,0.2803,0.2824,0.2859,0.2868,0.2878,0.2942,0.2927,0.2949,0.2984,0.3009,0.3016,0.3023,0.3045,0.3053,0.2953,0.2954,0.2954,0,0.2736,0.2772,0.2765,0.2793,0.2804,0.2786,0.2818,0.2827,0.2845,0.2853,0.2838,0.2883,0.2889,0.2932,0.2948,0.2957,0.2965,0.2946,0.3016,0.3022,0.3028,0.305,0.3058,0.2956,0.2956,0.2955,0.2955,0,0.2807,0.2833,0.2857,0.2876,0.2891,0.2921,0.2918,0.2934,0.2926,0.2927,0.2963,0.297,0.299,0.3001,0.2993,0.3044,0.3034,0.3018,0.2988,0.304,0.306,0.3068,0.296,0.2959,0.2958,0.2957,0,0,0.2883,0.29,0.2909,0.2918,0.2932,0.2951,0.2981,0.3002,0.3015,0.303,0.3054,0.3086,0.3071,0.3081,0.3075,0.3097,0.3147,0.3077,0.3077,0.3089,0.3203,0.3214,0.3224,0.3138,0.314,0.3141,0.3202,0,0.2941,0.2992,0.2988,0.3037,0.306,0.3044,0.307,0.3082,0.3084,0.3104,0.3106,0.3128,0.3107,0.3113,0.3134,0.3136,0.3169,0.3132,0.316,0.3161,0.3156,0.3234,0.3246,0.3302,0.3209,0.3211,0.3212,0,0.3014,0.3031,0.3083,0.3095,0.3104,0.3128,0.3147,0.3167,0.318,0.318,0.3193,0.3184,0.3214,0.3186,0.3228,0.3202,0.3214,0.3217,0.3219,0.322,0.3188,0.3236,0.332,0.3328,0.3224,0.3223,0.3222,0,0.3063,0.31,0.3136,0.3144,0.3159,0.3176,0.3183,0.3195,0.3208,0.3225,0.3234,0.3254,0.3265,0.3281,0.3278,0.3258,0.332,0.3292,0.332,0.332,0.3332,0.3331,0.3418,0.3342,0.3342,0.3342,0.3342,0,0.3126,0.3158,0.3158,0.318,0.3216,0.3211,0.3246,0.3251,0.3262,0.3285,0.3273,0.3294,0.3289,0.331,0.3308,0.3343,0.3348,0.3348,0.3347,0.3348,0.3348,0.3354,0.335,0.3344,0.3344,0.3343,0.3343,0,0.3186,0.3188,0.3226,0.3238,0.3242,0.3267,0.3277,0.3298,0.33,0.3329,0.3335,0.3338,0.3363,0.3362,0.339,0.3388,0.343,0.3425,0.3426,0.3424,0.3452,0.3449,0.3545,0.3557,0.3475,0.3476,0.3476,0,0.3226,0.325,0.3266,0.328,0.3289,0.3312,0.3326,0.3324,0.3339,0.3357,0.3375,0.3399,0.3418,0.3458,0.3463,0.3484,0.3478,0.3511,0.3481,0.3482,0.3478,0.3475,0.3478,0.3516,0.3517,0.3517,0.3518,0,0.3295,0.3295,0.3316,0.3339,0.3356,0.3373,0.3389,0.3401,0.34,0.3418,0.3444,0.3458,0.3488,0.3511,0.3532,0.3539,0.3528,0.3528,0.3535,0.3536,0.3535,0.3535,0.344,0.3525,0.3524,0.3524,0.3523,0.3523,0.3345,0.3366,0.3381,0.3405,0.3417,0.3433,0.3453,0.3459,0.348,0.3504,0.3502,0.353,0.3544,0.3572,0.3581,0.3603,0.3591,0.3602,0.3605,0.3607,0.361,0.3533,0.3607,0.3607,0.3607,0.3606,0.3606,0,0.3413,0.3422,0.3445,0.3468,0.3487,0.3478,0.3495,0.3511,0.3537,0.3552,0.3571,0.3601,0.3625,0.3632,0.3655,0.3672,0.3667,0.3677,0.3675,0.3677,0.3619,0.361,0.3681,0.3681,0.3681,0.3681,0.3681,0.3681,0.345,0.3486,0.3488,0.353,0.3539,0.3568,0.3578,0.3593,0.3604,0.3639,0.3659,0.3664,0.3676,0.37,0.3721,0.3723,0.3731,0.3743,0.3743,0.3688,0.3681,0.3674,0.3665,0.3746,0.3746,0.3798,0.3799,0.3799]},{"header":{"parameterUnit":"m.s-1","parameterCategory":1,"la1":30.2991,"la2":30.254,"lo1":-89.0895,"lo2":-89.0444,"dy":0.0017,"dx":0.0017,"nx":28,"ny":28,"refTime":"2025-07-03T03:00:00:Z","depth":0,"parameterNumber":3,"parameterNumberName":"V-component_of_WINDS"},"data":[0,0,0,0,0,0,0,0,0,0,0,0,0,0,0,0,0,0,0,0,0,0,0,0,0,0,0,0,0,0,0,0,0,0,0,0,0,0,0,0,0,0,0,0,0,0,0,0,0,0,0,0,0,0,0,0,0,0,-2.7552,-2.7553,0,-2.76,-2.76,-2.7601,-2.7586,-2.7585,-2.7584,-2.7583,-2.7629,-2.7632,-2.7634,0,0,0,0,0,0,0,0,0,0,0,0,0,-2.7448,-2.745,-2.7552,-2.7553,-2.7554,-2.76,-2.76,-2.7601,-2.7586,-2.7585,-2.7584,-2.7582,-2.7629,-2.7631,-2.7634,0,0,0,0,0,0,0,0,0,0,0,0,0,-2.7494,-2.7451,-2.7552,-2.7552,-2.7552,-2.76,-2.7601,-2.7601,-2.7586,-2.7585,-2.7583,-2.7582,-2.7628,-2.7631,-2.7634,-2.7685,0,0,-2.7644,-2.7646,0,0,0,0,0,0,0,0,-2.7491,-2.7498,-2.7551,-2.7552,-2.7552,-2.7585,-2.7581,-2.7629,-2.7587,-2.7573,-2.7583,-2.7581,-2.7616,-2.762,-2.7632,-2.7687,-2.7689,-2.7645,-2.7647,-2.7648,-2.7649,0,0,0,0,0,0,0,-2.7488,-2.7496,-2.7571,-2.7552,-2.7553,-2.7549,-2.7554,-2.759,-2.7602,-2.7574,-2.7573,-2.7579,-2.7616,-2.7629,-2.7633,-2.769,-2.7644,-2.7647,-2.7649,-2.7651,-2.7791,-2.7792,0,0,0,0,0,0,-2.7485,-2.7493,-2.757,-2.7572,-2.7518,-2.7552,-2.7557,-2.7576,-2.7602,-2.7604,-2.7581,-2.7578,-2.7624,-2.7629,-2.7635,-2.7698,-2.7648,-2.7651,-2.7653,-2.7789,-2.7791,-2.7793,0,0,0,0,0,0,-2.7483,-2.7492,-2.7568,-2.7533,-2.7542,-2.7555,-2.7577,-2.7578,-2.7591,-2.7607,-2.7609,-2.7592,-2.7623,-2.763,-2.7673,-2.7699,-2.7652,-2.7655,-2.7787,-2.779,-2.7792,-2.7822,0,0,0,0,0,0,-2.748,-2.7491,-2.751,-2.7533,-2.7544,-2.7605,-2.7578,-2.758,-2.7597,-2.7595,-2.7618,-2.762,-2.7623,-2.7668,-2.7676,-2.7702,-2.7658,-2.7785,-2.7788,-2.7791,-2.7819,-2.7825,-2.7831,0,0,0,0,0,-2.7476,-2.7516,-2.7511,-2.7521,-2.7568,-2.7607,-2.7613,-2.7616,-2.7599,-2.7619,-2.7629,-2.7619,-2.7695,-2.7673,-2.7682,-2.7709,-2.7783,-2.7787,-2.7791,-2.7816,-2.7824,-2.7831,0,0,0,0,0,0,-2.7494,-2.7519,-2.7514,-2.7563,-2.7583,-2.7604,-2.7629,-2.7624,-2.7648,-2.7645,-2.7647,-2.7652,-2.7697,-2.7707,-2.7683,-2.7761,-2.7736,-2.7742,-2.7752,-2.776,-2.7766,-2.7763,-2.7661,0,0,0,0,0,-2.7504,-2.7534,-2.7553,-2.7594,-2.7605,-2.7615,-2.7632,-2.7633,-2.7654,-2.7662,-2.7675,-2.7695,-2.7724,-2.7742,-2.7769,-2.782,-2.7826,-2.7843,-2.785,-2.7854,-2.786,-2.789,-2.7898,-2.7806,-2.7806,-2.7806,0,0,-2.7524,-2.7541,-2.756,-2.7598,-2.7614,-2.7645,-2.7623,-2.7656,-2.7679,-2.7667,-2.7709,-2.772,-2.7742,-2.779,-2.7812,-2.78,-2.7887,-2.786,-2.7863,-2.7866,-2.7895,-2.7904,-2.7911,-2.7809,-2.7808,-2.7808,0,0,-2.7578,-2.7593,-2.763,-2.7647,-2.7672,-2.7679,-2.7688,-2.7711,-2.7718,-2.776,-2.7753,-2.778,-2.7828,-2.7846,-2.7861,-2.7923,-2.7916,-2.7932,-2.7964,-2.7993,-2.8,-2.8007,-2.8031,-2.8039,-2.7937,-2.7937,-2.7937,0,-2.7599,-2.7646,-2.7649,-2.7684,-2.7702,-2.7694,-2.7732,-2.7748,-2.778,-2.7792,-2.7779,-2.7841,-2.7856,-2.7909,-2.7924,-2.7936,-2.7947,-2.7929,-2.7999,-2.8005,-2.8012,-2.8034,-2.8043,-2.7939,-2.7938,-2.7938,-2.7938,0,-2.7673,-2.7705,-2.7732,-2.7765,-2.7786,-2.7822,-2.7831,-2.7852,-2.7851,-2.786,-2.7904,-2.7922,-2.7953,-2.7965,-2.7964,-2.8019,-2.8011,-2.7998,-2.7974,-2.8022,-2.8044,-2.8053,-2.7941,-2.7941,-2.794,-2.794,0,0,-2.7738,-2.7774,-2.7784,-2.78,-2.7828,-2.7853,-2.7889,-2.7921,-2.794,-2.7962,-2.7994,-2.8036,-2.8025,-2.8042,-2.8043,-2.8069,-2.8119,-2.8053,-2.8053,-2.8066,-2.8183,-2.8194,-2.8204,-2.8114,-2.8116,-2.8117,-2.8182,0,-2.7794,-2.7859,-2.7864,-2.7923,-2.7954,-2.7948,-2.7979,-2.8,-2.801,-2.8038,-2.8047,-2.8078,-2.8061,-2.8072,-2.8096,-2.8108,-2.8143,-2.8103,-2.8144,-2.8146,-2.814,-2.8215,-2.8225,-2.8285,-2.819,-2.8192,-2.8193,0,-2.7869,-2.7896,-2.7958,-2.7985,-2.7998,-2.8026,-2.8057,-2.8084,-2.8108,-2.8113,-2.8134,-2.8131,-2.8169,-2.8143,-2.8196,-2.8169,-2.8186,-2.8195,-2.8197,-2.8202,-2.8173,-2.8223,-2.8304,-2.8314,-2.8206,-2.8204,-2.8204,0,-2.7913,-2.7964,-2.8009,-2.8023,-2.8053,-2.8074,-2.8088,-2.811,-2.813,-2.8157,-2.817,-2.82,-2.8217,-2.8241,-2.8247,-2.8228,-2.8301,-2.8275,-2.8307,-2.8307,-2.8323,-2.8322,-2.841,-2.8332,-2.8332,-2.8332,-2.8331,0,-2.7976,-2.8015,-2.8029,-2.8057,-2.8101,-2.8106,-2.8149,-2.8161,-2.8182,-2.8212,-2.8208,-2.8236,-2.8242,-2.8272,-2.8277,-2.8321,-2.8328,-2.8334,-2.8335,-2.8335,-2.8335,-2.8347,-2.8344,-2.8334,-2.8333,-2.8333,-2.8333,0,-2.8032,-2.8043,-2.8092,-2.8118,-2.8126,-2.8157,-2.8179,-2.8206,-2.8216,-2.8254,-2.8263,-2.8278,-2.8313,-2.8322,-2.8363,-2.8366,-2.8419,-2.8415,-2.8412,-2.8412,-2.8444,-2.8442,-2.8544,-2.8558,-2.8469,-2.847,-2.8471,0,-2.8072,-2.8102,-2.8133,-2.8153,-2.8169,-2.8201,-2.8222,-2.8229,-2.8251,-2.8282,-2.8305,-2.834,-2.8368,-2.8424,-2.8439,-2.8471,-2.8469,-2.8502,-2.8473,-2.8473,-2.8471,-2.847,-2.8474,-2.8508,-2.8509,-2.851,-2.851,0,-2.8144,-2.8148,-2.8179,-2.8212,-2.8238,-2.8264,-2.8289,-2.8306,-2.8316,-2.8341,-2.8378,-2.84,-2.8443,-2.8478,-2.8511,-2.8525,-2.852,-2.852,-2.8529,-2.853,-2.8527,-2.8531,-2.8428,-2.8517,-2.8516,-2.8516,-2.8516,-2.8515,-2.8194,-2.8222,-2.8248,-2.8283,-2.8303,-2.8327,-2.8354,-2.8368,-2.8399,-2.8436,-2.8438,-2.8478,-2.8503,-2.8547,-2.8563,-2.8595,-2.8585,-2.8598,-2.8601,-2.8605,-2.8609,-2.8521,-2.86,-2.86,-2.86,-2.86,-2.86,0,-2.8267,-2.8284,-2.8316,-2.8353,-2.838,-2.8374,-2.8402,-2.8426,-2.8462,-2.8486,-2.8515,-2.8558,-2.8592,-2.861,-2.8645,-2.8667,-2.8666,-2.8676,-2.8675,-2.8679,-2.8615,-2.8604,-2.8677,-2.8677,-2.8676,-2.8676,-2.8676,-2.8676,-2.8308,-2.8355,-2.8363,-2.842,-2.8437,-2.8477,-2.8494,-2.8517,-2.8537,-2.8586,-2.8615,-2.8627,-2.8649,-2.8685,-2.8717,-2.8722,-2.8735,-2.8747,-2.875,-2.8691,-2.8683,-2.8675,-2.8665,-2.8749,-2.875,-2.8812,-2.8812,-2.8813]}]]